Simultaneous Nadir Overpasses (SNOs) Predictions

Prediction of SNOs between AQUA and NPP Satellite Orbit:

Table of predicted SNOs for the next 14.0 days since TLE Epoch: 9/21/2024
Index Date (AQUA) Time (AQUA) Lat,Lon (AQUA) SZA (AQUA ) Date (NPP) Time (NPP) Lat,Lon (NPP) SZA (NPP ) Distance(km) Time Diff (sec)
1 09/21/2024 17:30:54 -81.29, 23.90 93.07 09/21/2024 17:31:01 -81.29, 24.04 93.09 2.37 7
2 09/24/2024 04:43:53 -81.29,-144.35 92.15 09/24/2024 04:43:22 -81.29,-144.22 92.15 2.18 31
3 09/24/2024 05:33:13 81.30, 23.57 87.84 09/24/2024 05:34:05 81.30, 23.64 87.80 1.27 52
4 09/26/2024 15:56:49 -81.29, 47.45 91.23 09/26/2024 15:55:42 -81.29, 47.41 91.19 0.65 67
5 09/26/2024 16:46:09 81.30,-144.67 88.76 09/26/2024 16:46:25 81.29,-144.74 88.76 1.35 16
6 09/29/2024 03:59:04 81.30, 47.14 89.67 09/29/2024 03:58:45 81.29, 47.17 89.68 0.78 19
7 09/29/2024 04:48:25 -81.30,-145.16 90.33 09/29/2024 04:49:29 -81.30,-144.97 90.39 3.29 64
8 10/01/2024 15:11:58 81.28,-121.37 90.63 10/01/2024 15:11:06 81.29,-121.40 90.66 0.76 52
9 10/01/2024 16:01:18 -81.30, 46.73 89.42 10/01/2024 16:01:49 -81.30, 46.86 89.46 2.20 31



Historial Predications of SNOs between AQUA and NPP
